User: anonymous   Login
Location: ??
(35.1714°N, 128.2806°E)
Time: 21:43:57
(UTC+00:00)
Language:

Tiangong - Orbit

View from above orbital plane
View from above orbital plane
View from above satellite
View from above satellite

Ground track
Ground track

The orbit data is extracted from the following two-line orbital elements,

1 48274U 21035A   21208.63971946  .00008507  00000-0  95605-4 0  9993
2 48274  41.4706  36.2962 0009005 247.8142 190.5701 15.62717401 14023
Epoch (UTC): 27 July 2021 15:21:11
Eccentricity: 0.0009005
inclination: 41.4706°
perigee height: 374 km
apogee height: 386 km
right ascension of ascending node: 36.2962°
argument of perigee: 247.8142°
revolutions per day: 15.62717401
mean anomaly at epoch: 190.5701°
orbit number at epoch: 1402

The dashed part of the orbit path shows where the satellite is in the earth's shadow,  

DLR